[[{"header":{"parameterUnit":"m.s-1","parameterCategory":1,"la1":30.2991,"la2":30.254,"lo1":-89.0895,"lo2":-89.0444,"dy":0.0017,"dx":0.0017,"nx":28,"ny":28,"refTime":"2024-05-06T03:00:00:Z","depth":0,"parameterNumber":2,"parameterNumberName":"U-component_of_WINDS"},"data":[0,0,0,0,0,0,0,0,0,0,0,0,0,0,0,0,0,0,0,0,0,0,0,0,0,0,0,0,0,0,0,0,0,0,0,0,0,0,0,0,0,0,0,0,0,0,0,0,0,0,0,0,0,0,0,0,0,0,-2.2565,-2.2565,0,-2.2542,-2.2542,-2.2542,-2.2507,-2.2507,-2.2506,-2.2506,-2.2482,-2.2481,-2.2481,0,0,0,0,0,0,0,0,0,0,0,0,0,-2.2578,-2.2578,-2.2565,-2.2565,-2.2564,-2.2542,-2.2542,-2.2542,-2.2507,-2.2507,-2.2506,-2.2505,-2.2482,-2.2481,-2.2481,0,0,0,0,0,0,0,0,0,0,0,0,0,-2.2565,-2.2578,-2.2565,-2.2545,-2.2543,-2.2542,-2.2542,-2.2542,-2.2508,-2.2507,-2.2506,-2.2505,-2.2482,-2.2481,-2.2481,-2.2499,0,0,-2.2481,-2.2481,0,0,0,0,0,0,0,0,-2.2566,-2.2565,-2.2548,-2.2546,-2.2544,-2.2527,-2.2538,-2.2527,-2.2508,-2.2521,-2.2506,-2.2505,-2.2497,-2.2496,-2.2494,-2.2498,-2.2497,-2.2481,-2.2481,-2.2481,-2.2481,0,0,0,0,0,0,0,-2.2567,-2.2566,-2.2556,-2.2548,-2.2545,-2.2536,-2.2534,-2.2536,-2.2514,-2.252,-2.2517,-2.2515,-2.2496,-2.2494,-2.2493,-2.2496,-2.2481,-2.2481,-2.2481,-2.2481,-2.2514,-2.2515,0,0,0,0,0,0,-2.2571,-2.2567,-2.2557,-2.2555,-2.2553,-2.2537,-2.2534,-2.2533,-2.2514,-2.2511,-2.2516,-2.2513,-2.2494,-2.2493,-2.2492,-2.2511,-2.2481,-2.2481,-2.2481,-2.2513,-2.2514,-2.2515,0,0,0,0,0,0,-2.2571,-2.257,-2.2557,-2.256,-2.2558,-2.2538,-2.2537,-2.2533,-2.2531,-2.2511,-2.2507,-2.2517,-2.2494,-2.2492,-2.2497,-2.251,-2.2481,-2.2481,-2.2512,-2.2513,-2.2515,-2.255,0,0,0,0,0,0,-2.2572,-2.2571,-2.2577,-2.2561,-2.2558,-2.2564,-2.2538,-2.2533,-2.2531,-2.2528,-2.2512,-2.2508,-2.2493,-2.2498,-2.2497,-2.2509,-2.2481,-2.2511,-2.2513,-2.2514,-2.2547,-2.2552,-2.2556,0,0,0,0,0,-2.2573,-2.2588,-2.2578,-2.2577,-2.2566,-2.2565,-2.2563,-2.2545,-2.2532,-2.2538,-2.2526,-2.2509,-2.2509,-2.2499,-2.2498,-2.251,-2.251,-2.2512,-2.2514,-2.2545,-2.2551,-2.2556,0,0,0,0,0,0,-2.2606,-2.2585,-2.2574,-2.2584,-2.2577,-2.2559,-2.2566,-2.2552,-2.2547,-2.2544,-2.2522,-2.2519,-2.2527,-2.2519,-2.2508,-2.2526,-2.2507,-2.2509,-2.2531,-2.2536,-2.254,-2.2542,-2.248,0,0,0,0,0,-2.2615,-2.2616,-2.2597,-2.2608,-2.2605,-2.2587,-2.2585,-2.2572,-2.2563,-2.256,-2.2547,-2.2539,-2.2537,-2.2536,-2.2533,-2.2546,-2.2542,-2.2554,-2.2558,-2.2562,-2.2564,-2.257,-2.2575,-2.2522,-2.2522,-2.2522,0,0,-2.2632,-2.2621,-2.2623,-2.2615,-2.2607,-2.2609,-2.2584,-2.2586,-2.2587,-2.256,-2.2564,-2.2555,-2.2545,-2.2554,-2.2558,-2.2547,-2.2578,-2.2565,-2.2568,-2.2568,-2.2573,-2.2578,-2.2582,-2.2524,-2.2524,-2.2523,0,0,-2.2665,-2.2657,-2.2665,-2.2658,-2.2647,-2.2635,-2.2637,-2.2622,-2.2615,-2.2619,-2.2599,-2.2599,-2.2596,-2.259,-2.2586,-2.2617,-2.2601,-2.2617,-2.264,-2.2646,-2.265,-2.2654,-2.2664,-2.2669,-2.2619,-2.2619,-2.2619,0,-2.2688,-2.269,-2.2671,-2.2675,-2.2672,-2.2648,-2.2656,-2.265,-2.2639,-2.2637,-2.2626,-2.2622,-2.2613,-2.2621,-2.2629,-2.2626,-2.2628,-2.2618,-2.2651,-2.2654,-2.2657,-2.2667,-2.2672,-2.2621,-2.2621,-2.262,-2.262,0,-2.2719,-2.272,-2.2728,-2.2718,-2.2716,-2.2722,-2.2704,-2.2704,-2.2692,-2.2681,-2.2685,-2.2674,-2.2668,-2.2669,-2.2657,-2.2675,-2.2669,-2.2655,-2.2635,-2.2665,-2.2674,-2.2677,-2.2624,-2.2623,-2.2622,-2.2622,0,0,-2.2771,-2.2751,-2.2755,-2.275,-2.2736,-2.2737,-2.2742,-2.2737,-2.2737,-2.2731,-2.2734,-2.2733,-2.272,-2.2715,-2.2702,-2.2708,-2.2733,-2.2693,-2.2692,-2.27,-2.2752,-2.2762,-2.2767,-2.2723,-2.2723,-2.2724,-2.2753,0,-2.2801,-2.2809,-2.2792,-2.2804,-2.2805,-2.2782,-2.2787,-2.2779,-2.2769,-2.2768,-2.2757,-2.2756,-2.2739,-2.2736,-2.2741,-2.2729,-2.2743,-2.2727,-2.2725,-2.2725,-2.2728,-2.2772,-2.2783,-2.2811,-2.2756,-2.2757,-2.2757,0,-2.2837,-2.2832,-2.2844,-2.283,-2.283,-2.2834,-2.2828,-2.2828,-2.2819,-2.2811,-2.2807,-2.2791,-2.2795,-2.2777,-2.2781,-2.2771,-2.2769,-2.2764,-2.2764,-2.2763,-2.2743,-2.2771,-2.2819,-2.2823,-2.2763,-2.2762,-2.2762,0,-2.2874,-2.287,-2.2877,-2.2873,-2.2858,-2.2861,-2.2854,-2.2844,-2.2843,-2.2837,-2.2836,-2.2831,-2.2829,-2.2826,-2.2809,-2.2798,-2.2816,-2.2796,-2.2809,-2.281,-2.2814,-2.2813,-2.2861,-2.2814,-2.2814,-2.2814,-2.2814,0,-2.2908,-2.2916,-2.2893,-2.2897,-2.2905,-2.2887,-2.2895,-2.2886,-2.2878,-2.2879,-2.286,-2.2862,-2.2841,-2.284,-2.2828,-2.2833,-2.2833,-2.2826,-2.2823,-2.2828,-2.2828,-2.2826,-2.2823,-2.2815,-2.2814,-2.2814,-2.2814,0,-2.295,-2.2935,-2.2941,-2.2926,-2.2922,-2.2929,-2.2915,-2.2918,-2.2907,-2.291,-2.2909,-2.2892,-2.2891,-2.2874,-2.2869,-2.2861,-2.2872,-2.2864,-2.2875,-2.2872,-2.2886,-2.2885,-2.2934,-2.2939,-2.2888,-2.2889,-2.2889,0,-2.2973,-2.2979,-2.2964,-2.2964,-2.2959,-2.2959,-2.2957,-2.2939,-2.2938,-2.2928,-2.2932,-2.2929,-2.2926,-2.2925,-2.2912,-2.2908,-2.29,-2.2918,-2.2899,-2.2904,-2.29,-2.29,-2.29,-2.2921,-2.2922,-2.2922,-2.2923,0,-2.3016,-2.3008,-2.3006,-2.3002,-2.3,-2.2996,-2.299,-2.2991,-2.2971,-2.2971,-2.2969,-2.2967,-2.2962,-2.2959,-2.2953,-2.2946,-2.2931,-2.2929,-2.2931,-2.2936,-2.2942,-2.2939,-2.2885,-2.2928,-2.2927,-2.2927,-2.2926,-2.2926,-2.3049,-2.3053,-2.3043,-2.3042,-2.3036,-2.3031,-2.3033,-2.3022,-2.3021,-2.3016,-2.3005,-2.3005,-2.2996,-2.2986,-2.2981,-2.2981,-2.2972,-2.2976,-2.2976,-2.2978,-2.298,-2.2943,-2.2979,-2.2979,-2.2979,-2.2979,-2.2979,0,-2.309,-2.3083,-2.3082,-2.3074,-2.3073,-2.306,-2.3053,-2.3053,-2.3053,-2.3046,-2.3044,-2.3042,-2.3039,-2.3026,-2.3022,-2.3025,-2.3018,-2.3024,-2.3023,-2.3022,-2.2989,-2.2987,-2.303,-2.303,-2.303,-2.303,-2.303,-2.303,-2.3111,-2.3117,-2.3108,-2.3111,-2.3104,-2.3104,-2.3101,-2.3097,-2.3091,-2.309,-2.3088,-2.308,-2.307,-2.3065,-2.3062,-2.3058,-2.3058,-2.3066,-2.306,-2.3029,-2.3024,-2.302,-2.3018,-2.3067,-2.3067,-2.3094,-2.3094,-2.3094]},{"header":{"parameterUnit":"m.s-1","parameterCategory":1,"la1":30.2991,"la2":30.254,"lo1":-89.0895,"lo2":-89.0444,"dy":0.0017,"dx":0.0017,"nx":28,"ny":28,"refTime":"2024-05-06T03:00:00:Z","depth":0,"parameterNumber":3,"parameterNumberName":"V-component_of_WINDS"},"data":[0,0,0,0,0,0,0,0,0,0,0,0,0,0,0,0,0,0,0,0,0,0,0,0,0,0,0,0,0,0,0,0,0,0,0,0,0,0,0,0,0,0,0,0,0,0,0,0,0,0,0,0,0,0,0,0,0,0,4.5836,4.5837,0,4.5872,4.5873,4.5873,4.5822,4.582,4.5819,4.5817,4.5851,4.5853,4.5856,0,0,0,0,0,0,0,0,0,0,0,0,0,4.5721,4.5724,4.5836,4.5837,4.5837,4.5872,4.5873,4.5873,4.5822,4.582,4.5818,4.5816,4.585,4.5853,4.5856,0,0,0,0,0,0,0,0,0,0,0,0,0,4.5766,4.5724,4.5836,4.5816,4.5815,4.5872,4.5873,4.5873,4.5823,4.582,4.5817,4.5815,4.5849,4.5852,4.5856,4.5934,0,0,4.5868,4.587,0,0,0,0,0,0,0,0,4.5763,4.577,4.5819,4.5818,4.5816,4.584,4.5844,4.5893,4.5824,4.582,4.5817,4.5814,4.5849,4.5853,4.5865,4.5935,4.5937,4.5868,4.5871,4.5872,4.5873,0,0,0,0,0,0,0,4.576,4.5768,4.585,4.582,4.5818,4.5805,4.5808,4.5853,4.5849,4.582,4.5816,4.5821,4.5848,4.5862,4.5866,4.5937,4.5868,4.5872,4.5874,4.5876,4.6073,4.6076,0,0,0,0,0,0,4.576,4.5766,4.5849,4.5852,4.5783,4.5809,4.5813,4.5835,4.5848,4.5848,4.5824,4.5819,4.5856,4.5861,4.5867,4.5959,4.5872,4.5876,4.5878,4.607,4.6074,4.6077,0,0,0,0,0,0,4.5758,4.5768,4.5848,4.5808,4.5817,4.5814,4.5839,4.5837,4.5851,4.5851,4.585,4.5839,4.5854,4.5861,4.5918,4.5959,4.5878,4.5881,4.6067,4.6071,4.6075,4.6143,0,0,0,0,0,0,4.5754,4.5767,4.5797,4.5809,4.5819,4.59,4.5842,4.584,4.5858,4.5852,4.5865,4.5865,4.5853,4.5912,4.5922,4.5963,4.5884,4.6063,4.6069,4.6074,4.6137,4.6149,4.616,0,0,0,0,0,4.5751,4.5814,4.5799,4.581,4.5857,4.5902,4.5908,4.5894,4.5862,4.5892,4.5892,4.5864,4.5953,4.5918,4.5929,4.5972,4.606,4.6067,4.6073,4.6132,4.6147,4.6159,0,0,0,0,0,0,4.5807,4.5816,4.5799,4.5869,4.5885,4.5893,4.5931,4.591,4.5935,4.5929,4.5909,4.5912,4.5973,4.5978,4.5939,4.6047,4.6001,4.601,4.6042,4.6056,4.6067,4.6065,4.5887,0,0,0,0,0,4.5828,4.5865,4.587,4.5931,4.594,4.5934,4.5953,4.5941,4.5957,4.5963,4.5967,4.5983,4.6014,4.6035,4.6064,4.6137,4.6139,4.6172,4.6183,4.6192,4.62,4.624,4.6254,4.6098,4.6098,4.6098,0,0,4.5871,4.588,4.5904,4.5942,4.5954,4.5991,4.594,4.5982,4.601,4.5969,4.6023,4.6027,4.6043,4.6108,4.6137,4.6114,4.6244,4.6201,4.6208,4.6211,4.6248,4.6263,4.6276,4.6103,4.6102,4.6101,0,0,4.5968,4.5979,4.6031,4.6044,4.6062,4.6058,4.607,4.6082,4.6083,4.6137,4.6108,4.614,4.6194,4.6207,4.6221,4.6324,4.6299,4.6333,4.6392,4.6431,4.6443,4.6454,4.649,4.6504,4.6341,4.6341,4.6342,0,4.6019,4.6076,4.606,4.6105,4.6122,4.6088,4.6141,4.6153,4.618,4.6192,4.6166,4.6234,4.6242,4.631,4.6335,4.6347,4.6361,4.6332,4.6442,4.6453,4.6463,4.6498,4.6512,4.6345,4.6345,4.6345,4.6344,0,4.6137,4.6177,4.6217,4.6245,4.6266,4.6314,4.6306,4.6329,4.6315,4.6313,4.6369,4.6378,4.6408,4.6423,4.6409,4.6489,4.6474,4.6446,4.6399,4.6482,4.6515,4.6528,4.6351,4.635,4.6349,4.6348,0,0,4.6272,4.6291,4.6306,4.6318,4.6336,4.6365,4.6412,4.6442,4.6463,4.6482,4.652,4.6567,4.6541,4.6557,4.6544,4.6577,4.6658,4.6544,4.6544,4.6566,4.6747,4.6769,4.6785,4.6642,4.6645,4.6647,4.6746,0,4.637,4.6451,4.6439,4.6517,4.6553,4.6521,4.6561,4.6576,4.6576,4.6606,4.6604,4.6638,4.6601,4.661,4.6642,4.6642,4.6695,4.6634,4.6677,4.6679,4.6675,4.6802,4.6825,4.6918,4.6759,4.6761,4.6762,0,4.6495,4.652,4.6602,4.6615,4.6629,4.6666,4.6693,4.6722,4.6738,4.6735,4.6753,4.6734,4.6779,4.6732,4.6793,4.6753,4.6769,4.6772,4.6775,4.6779,4.6726,4.6809,4.6948,4.6962,4.6782,4.678,4.6779,0,4.6586,4.664,4.6696,4.6707,4.6723,4.6749,4.6757,4.677,4.6789,4.6812,4.6824,4.6852,4.6868,4.6889,4.6878,4.6844,4.6942,4.6893,4.6941,4.6941,4.6963,4.6962,4.7107,4.6973,4.6973,4.6973,4.6972,0,4.6697,4.6748,4.6737,4.6772,4.6828,4.6813,4.6869,4.6872,4.6884,4.6918,4.6892,4.6924,4.6907,4.6938,4.693,4.6982,4.6989,4.6988,4.6985,4.6991,4.6991,4.7002,4.6995,4.6976,4.6976,4.6975,4.6974,0,4.6808,4.6802,4.6862,4.6872,4.6875,4.6917,4.6925,4.6957,4.6954,4.6998,4.7007,4.7003,4.7038,4.7029,4.7066,4.706,4.7127,4.7116,4.7122,4.712,4.7168,4.7164,4.7325,4.7345,4.7198,4.72,4.7201,0,4.6879,4.6918,4.6933,4.6954,4.6964,4.6999,4.7019,4.7005,4.7026,4.7047,4.7077,4.7109,4.7135,4.7192,4.7192,4.7221,4.721,4.7265,4.7214,4.7219,4.7212,4.721,4.7214,4.7275,4.7277,4.7278,4.7279,0,4.7007,4.7002,4.7033,4.7062,4.7087,4.7109,4.7128,4.7147,4.7134,4.7159,4.7196,4.7216,4.7255,4.7287,4.7314,4.732,4.7298,4.7295,4.7307,4.7314,4.7316,4.7316,4.715,4.7291,4.729,4.7289,4.7289,4.7288,4.7101,4.7134,4.715,4.7184,4.7198,4.7217,4.7247,4.7249,4.7279,4.7311,4.73,4.7341,4.7355,4.7389,4.7398,4.743,4.7409,4.7427,4.7432,4.7437,4.7443,4.7311,4.7434,4.7434,4.7434,4.7433,4.7433,0,4.7228,4.7236,4.7268,4.7297,4.7324,4.7301,4.7321,4.7345,4.7382,4.7397,4.7424,4.7465,4.7497,4.7499,4.7529,4.7553,4.7544,4.7562,4.756,4.7562,4.746,4.7446,4.7569,4.7569,4.7569,4.7569,4.7569,4.7569,4.7297,4.7353,4.735,4.7412,4.7419,4.746,4.7474,4.7491,4.7503,4.7551,4.7578,4.7579,4.759,4.762,4.7648,4.7647,4.766,4.7682,4.7678,4.7582,4.7569,4.7556,4.7543,4.7684,4.7685,4.7777,4.7778,4.7779]}]]